Regional Weather Roundup
Issued by NWS State College, PA

Home | Current Version | Previous Version | Graphics & Text | Print | Product List | Glossary On
Versions: 1 2 3 4 5 6 7 8 9 10 11 12 13 14 15 16 17 18 19 20 21 22 23 24 25 26 27 28 29 30 31 32 33 34 35 36 37 38 39 40 41 42 43 44 45 46 47 48 49 50
000
ASUS41 KCTP 280803
RWRCTP

REGIONAL WEATHER ROUNDUP
NATIONAL WEATHER SERVICE STATE COLLEGE PA
300 AM EST WED JAN 28 2015

Note: "fair" indicates few or no clouds below 12,000 feet with no
significant weather and/or obstructions to visibility.

* = STATION THAT DOES NOT REPORT PRECIPITATION /E.G. RAIN...SNOW...ETC/
    THUNDER OR FOG.

PAZ002>004-007>009-013>016-020>023-029>032-280900-
WESTERN PENNSYLVANIA

CITY           SKY/WX    TMP DP  RH WIND       PRES   REMARKS
ERIE           PTCLDY     3  -1  83 S6        30.19R WCI  -8
MEADVILLE      PTCLDY    11   7  84 CALM      30.13R FOG
FRANKLIN*      CLOUDY    10   3  72 W5        30.13R WCI   2
NEW CASTLE     PTSUNNY    8   6  92 CALM      30.20R
BEAVER COUNTY  NOT AVBL
BUTLER*        CLOUDY    14   7  73 CALM      30.17R
PITTSBURGH INT FLURRIES  14   9  80 W6        30.17R WCI   5
PITTSBURGH     MOCLDY    13   7  77 W7        30.15R WCI   3
INDIANA*       MOCLDY     7   5  92 CALM      30.16R
LATROBE        CLEAR      9   7  92 CALM      30.17R
WASHINGTON CO* CLOUDY    16   9  73 MISG      30.19R
$$

PAZ004>006-010>012-017>019-024>028-033>037-041-042-045-046-049>053-280900-
CENTRAL PENNSYLVANIA

CITY           SKY/WX    TMP DP  RH WIND       PRES   REMARKS
BRADFORD       PTCLDY     6   1  80 W8        30.00R WCI  -7
DUBOIS         MOCLDY     7   4  87 W10       30.04S WCI  -8
CLEARFIELD     CLEAR      7   3  84 SW6       30.06R WCI  -3
JOHNSTOWN      CLEAR      8   4  83 W9        30.02R WCI  -5
ALTOONA        CLEAR     12   5  73 NW10      30.06R WCI  -1
STATE COLLEGE  CLEAR     10   3  71 W6        30.05R WCI   1
WILLIAMSPORT   FAIR      12   1  61 W13       30.05S WCI  -3
SELINSGROVE    PTCLDY     9   0  67 CALM      30.06R
FT INDIANTOWN  PTCLDY    17   0  47 NW18G26   30.02R WCI   1
CAPITAL CITY   CLEAR     19   2  47 W10G20    30.05R WCI   7
HARRISBURG     PTCLDY    18   3  52 NW13      30.05R WCI   5
YORK           CLEAR     17   4  56 NW7       30.03R WCI   8
$$

PAZ038>040-043-044-047-048-054-055-060>062-067>071-280900-
EASTERN PENNSYLVANIA

CITY           SKY/WX    TMP DP  RH WIND       PRES   REMARKS
SCRANTON       CLEAR     12   0  58 W8        29.96R WCI   0
MOUNT POCONO   CLEAR      8  -4  58 NW18G26   29.80R WCI -11
ALLENTOWN      CLEAR     16   2  54 NW10G20   29.97R WCI   4
QUAKERTOWN*    NOT AVBL
READING        PTCLDY    17   0  47 NW16G25   30.00R WCI   2
LANCASTER      CLEAR     17   1  49 NW17      30.01R WCI   1
COATESVILLE    SUNNY     18   5  57 NW16G24   29.96R WCI   3
POTTSTOWN      PTCLDY    16   3  56 VRB6      29.98R WCI   7
BLUE BELL      PTCLDY    19   5  53 NW8G16    29.96R WCI   9
DOYLESTOWN     PTCLDY    15   1  53 NW13G26   29.93R WCI   1
WILLOW GROVE   NOT AVBL
NORTH PHILA    FAIR      20   1  43 NW13      29.98R WCI   7
PHILADELPHIA   PTCLDY    20   5  52 NW14      30.00R WCI   7
$$


USA.gov is the U.S. government's official web portal to all federal, state and local government web resources and services.